Showing default

HULIANWANG DIGUI-48, 65051

Orbit data source: Space-Track

HULIANWANG DIGUI-48, 65051 is a payload satellite owned by Zhongguo Xingwang (CN) in LEO that was launched on Wed, 30 Jul 2025 UTC via a CHANG ZHENG 8A launch vehicle from the Wenchang Satellite Launch Center (WSC). Payload-class satellites include a variety of spacecraft equipped with specific instruments for various scientific and technological missions. These include communications satellites like Starlink; space stations such as the ISS; scientific satellites like the Hubble; Earth observation satellites from companies like Planet Labs, Umbra, and HawkEye 360; GPS; miniature CubeSats for education and research; and military/defense satellites.

Loading next visibility...
Identifier
65051, 2025-162J
Orbit
LEO
Country
Flag of CNCN / PRC
Related business
Manufacturer
SECM
Mission
Operational Civil Communications
Bus & Motor
XINGWANG S, Unknown motor
Mass
~800 kg wet, ~800 kg dry
Launch date (UTC)
2025-07-30 (11 months ago)
Launch vehicle
CHANG ZHENG 8A
Launch site
Wenchang Satellite Launch Center (WSC)
Object type
Payload
Rocket body
Debris
Shape & HBR
Box + 2 Pan, 14.5 m
Radar Cross Section
5.935 m², Large (>1 m²)

Expand to show TLE details & history
Last TLE update: 9 hours ago

TLE from 9 hours ago
0 HULIANWANG DIGUI-48
1 65051U 25162J   26171.48240856 -.00000095  00000-0  62394-4 0  9990
2 65051  50.0036 253.6453 0000279 176.1278 183.9596 13.29325941 43806
Epoch: 2026-06-20T11:34Z
TLE epoch observation values (Epoch: 2026-06-20T11:34:40.099Z)
Latitude
-0.00005°
Longitude
171.28179°
Altitude
1,150.023 km
Speed
7.279 km/s
True Right ascension
16h 54m 34s
True Declination
0° 00' 00"
Sunlit
Object was in full shadow at epoch
Visualization orbit readout
Latitude
Unknown
Longitude
Unknown
Altitude
Unknown
Speed
Unknown
Apparent Right ascension
Unknown
Apparent Declination
Unknown
Sunlit
N/A
Visualization observer readout
Local Sidereal Time
07:22:57
Azimuth
Unknown
Elevation
Unknown
Doppler factor
Unknown
Orbital elements
Apogee altitude
1,150.222 km
Perigee altitude
1,149.802 km
Semi-major axis
7,528.149 km
Eccentricity
0.00003
Inclination
50.0036°
RAAN
253.6453°
Arg. of periapsis
176.1278°
True anomaly
183.95938°
Mean anomaly
183.9596°
Eccentric anomaly
183.95949°
Mean motion
3.32285 °/min
Orbital period
108.34 mins
BSTAR
0.000062394
Loading maneuver chart data...
Computing Atmospheric mass density...
Loading historical data...
Loading historical data...
Loading historical data...
Loading historical data...
Loading historical data...
Loading historical data...
Loading historical data...

Documentation

Showing up to 5 results
|